Regional Weather Roundup
Issued by NWS

Home | Current Version | Previous Version | Graphics & Text | Print | Product List | Glossary On
Versions: 1 2 3 4 5 6 7 8 9 10 11 12 13 14 15 16 17 18 19 20 21 22 23 24 25 26 27 28 29 30 31 32 33 34 35 36 37 38 39 40 41 42 43 44 45 46 47 48 49
000
ASUS45 KSLC 300510
RWRUT

UTAH REGIONAL WEATHER ROUNDUP
NATIONAL WEATHER SERVICE SALT LAKE CITY UT
1100 PM MDT SUN MAR 29 2015

UTZ001>011-023>025-300600-

NORTHERN UTAH

CITY           SKY/WX    TMP DP  RH WIND       PRES   REMARKS
BRIGHAM CITY   CLEAR     49  28  43 NW5       30.21R
HILL AFB       CLEAR     52  16  24 N5        30.20S
LOGAN          CLEAR     43  26  51 CALM      30.21R
OGDEN          CLEAR     49  19  30 S3        30.19S
PROVO AIRPORT  CLEAR     50  28  43 NE3       30.21R
SALT LAKE CITY CLEAR     51  25  36 S8        30.18F
VERNAL         CLEAR     45  21  38 N7        30.18S
WENDOVER       CLEAR     48  12  23 NW10      30.19S
HEBER CITY     CLEAR     43  19  39 NE5       30.24S
WEST JORDAN    CLEAR     46  23  39 CALM      30.21S

$$

UTZ012>022-026-027-300600-

SOUTHERN/CENTRAL UTAH

CITY           SKY/WX    TMP DP  RH WIND       PRES   REMARKS
BLANDING       PTCLDY    52  17  25 N12       30.26S
BRYCE CANYON   CLEAR     39  26  59 W7        30.31S WCI  34
CEDAR CITY     CLEAR     54  21  27 SE9       30.19R
DELTA          PTCLDY    50  13  22 N7        30.17S
HANKSVILLE     MOCLDY    61  12  15 CALM      30.15S
MILFORD        PTCLDY    46  17  31 CALM      30.17R
MOAB/CYNLANDS  CLEAR     52   3  13 CALM      30.12R
PRICE          CLEAR     53   7  15 CALM      30.20R
ST GEORGE      CLEAR     66  25  20 CALM      30.07R
KANAB          CLEAR     54  27  35 N5        30.20R

$$

REGIONAL REPORTS     COLORADO/ARIZONA

CITY           SKY/WX    TMP DP  RH WIND       PRES   REMARKS
CRAIG, CO      CLEAR     37  22  54 NE3       30.24R
GRAND JUNCTION CLEAR     49  12  22 E6        30.15R
RIFLE          CLEAR     47  17  30 E6        30.20R
MONTROSE       CLEAR     49  18  29 SE12      30.23R
CORTEZ         CLEAR     42  16  34 E7        30.23R
PAGE, AZ       MOCLDY    67  22  18 SW3       30.11R
GRAND CANYON   PTCLDY    44  23  43 CALM      30.27S
KINGMAN        PTCLDY    62  24  23 S12       30.09S
FLAGSTAFF      PTCLDY    40  23  50 CALM      30.31R

$$

REGIONAL REPORTS    NEVADA/IDAHO/WYOMING

CITY           SKY/WX    TMP DP  RH WIND       PRES   REMARKS
LAS VEGAS, NV  PTCLDY    76  22  13 SW8       29.96R
ELY            PTCLDY    47  12  24 SE5       30.22R
ELKO           CLEAR     47   7  19 E5        30.18R
POCATELLO, ID  CLEAR     49  16  26 S8        30.20S
BURLEY         CLEAR     42  23  46 S7        30.18F
EVANSTON, WY   CLEAR     41  14  33 W6        30.28S
ROCK SPRINGS   CLEAR     44  12  27 SW8       30.24R
KEMMERER       CLEAR     37  12  35 SW6       30.28S WCI  33

$$


USA.gov is the U.S. government's official web portal to all federal, state and local government web resources and services.